When you browse on this site, cookies collect data to enhance your experience and personalize the content and advertising you see.
Visit our Privacy Policy to learn more. By continuing to use the site, you agree to this use of cookies and data.
  • In Germany
  • List of Countries
  • For 7 days
  • Water Temperature
  • Satellite Maps
  • Weather Map
  • Weather Widgets
  • user-avatar
    Login

    Hourly Weather Vlotho

    Today, 23 February, Saturday

    Time Temperature Precipitation Wind Pressure Humidity
    00:00 +1°C° 0 mm 3 mps 768 mmHg 84%
    01:00 +2°C° 0 mm 2 mps 769 mmHg 92%
    02:00 +1°C° 0 mm 3 mps 768 mmHg 90%
    03:00 +1°C° 0 mm 3 mps 768 mmHg 88%
    04:00 0°C° 0 mm 3 mps 768 mmHg 86%
    05:00 0°C° 0 mm 3 mps 768 mmHg 84%
    06:00 -1°C° 0 mm 2 mps 768 mmHg 82%
    07:00 -2°C° 0 mm 2 mps 769 mmHg 80%
    08:00 +1°C° 0 mm 2 mps 768 mmHg 73%
    09:00 +1°C° 0 mm 3 mps 768 mmHg 67%
    10:00 +2°C° 0 mm 3 mps 768 mmHg 60%
    11:00 +4°C° 0 mm 3 mps 768 mmHg 54%
    12:00 +5°C° 0 mm 3 mps 768 mmHg 49%
    13:00 +8°C° 0 mm 3 mps 768 mmHg 43%
    14:00 +8°C° 0 mm 3 mps 767 mmHg 43%
    15:00 +9°C° 0 mm 3 mps 767 mmHg 43%
    16:00 +9°C° 0 mm 3 mps 767 mmHg 43%
    17:00 +8°C° 0 mm 3 mps 767 mmHg 47%
    18:00 +6°C° 0 mm 2 mps 767 mmHg 50%
    19:00 +5°C° 0 mm 2 mps 767 mmHg 54%
    20:00 +5°C° 0 mm 2 mps 767 mmHg 55%
    21:00 +4°C° 0 mm 2 mps 767 mmHg 55%
    22:00 +4°C° 0 mm 2 mps 767 mmHg 56%
    23:00 +4°C° 0 mm 2 mps 767 mmHg 56%

    Tomorrow, 24 February, Sunday

    Time Temperature Precipitation Wind Pressure Humidity
    00:00 +3°C° 0 mm 2 mps 767 mmHg 55%
    01:00 +3°C° 0 mm 2 mps 767 mmHg 55%
    02:00 +3°C° 0 mm 2 mps 767 mmHg 54%
    03:00 +4°C° 0 mm 1 mps 767 mmHg 53%
    04:00 +3°C° 0 mm 1 mps 767 mmHg 52%
    05:00 +3°C° 0 mm 1 mps 767 mmHg 50%
    06:00 +3°C° 0 mm 1 mps 767 mmHg 49%
    07:00 +3°C° 0 mm 1 mps 767 mmHg 48%
    08:00 +4°C° 0 mm 1 mps 767 mmHg 45%
    09:00 +6°C° 0 mm 1 mps 767 mmHg 41%
    10:00 +7°C° 0 mm 1 mps 767 mmHg 38%
    11:00 +9°C° 0 mm 1 mps 767 mmHg 35%
    12:00 +10°C° 0 mm 1 mps 767 mmHg 32%
    13:00 +12°C° 0 mm 1 mps 767 mmHg 29%
    14:00 +12°C° 0 mm 1 mps 767 mmHg 30%
    15:00 +12°C° 0 mm 0 mps 767 mmHg 31%
    16:00 +12°C° 0 mm 0 mps 767 mmHg 32%
    17:00 +10°C° 0 mm 0 mps 767 mmHg 36%
    18:00 +9°C° 0 mm 0 mps 767 mmHg 39%
    19:00 +8°C° 0 mm 1 mps 767 mmHg 43%
    20:00 +7°C° 0 mm 0 mps 767 mmHg 44%
    21:00 +7°C° 0 mm 0 mps 767 mmHg 46%
    22:00 +6°C° 0 mm 0 mps 767 mmHg 47%
    23:00 +6°C° 0 mm 0 mps 767 mmHg 48%

    Day after tomorrow, 25 February, Monday

    Time Temperature Precipitation Wind Pressure Humidity
    00:00 +6°C° 0 mm 0 mps 767 mmHg 48%
    01:00 +6°C° 0 mm 1 mps 767 mmHg 49%
    02:00 +6°C° 0 mm 1 mps 767 mmHg 50%
    03:00 +5°C° 0 mm 0 mps 767 mmHg 51%
    04:00 +4°C° 0 mm 0 mps 767 mmHg 52%
    05:00 +4°C° 0 mm 0 mps 767 mmHg 52%
    06:00 +4°C° 0 mm 0 mps 767 mmHg 52%
    07:00 +4°C° 0 mm 0 mps 767 mmHg 53%
    08:00 +5°C° 0 mm 0 mps 767 mmHg 51%
    09:00 +7°C° 0 mm 0 mps 768 mmHg 49%
    10:00 +8°C° 0 mm 0 mps 768 mmHg 47%
    11:00 +10°C° 0 mm 1 mps 768 mmHg 44%
    12:00 +12°C° 0 mm 1 mps 768 mmHg 40%
    13:00 +13°C° 0 mm 1 mps 767 mmHg 37%
    14:00 +13°C° 0 mm 1 mps 767 mmHg 38%
    15:00 +14°C° 0 mm 1 mps 767 mmHg 39%
    16:00 +14°C° 0 mm 1 mps 766 mmHg 41%
    17:00 +13°C° 0 mm 1 mps 766 mmHg 45%
    18:00 +11°C° 0 mm 1 mps 766 mmHg 50%
    19:00 +9°C° 0 mm 1 mps 766 mmHg 54%
    20:00 +8°C° 0 mm 0 mps 766 mmHg 55%
    21:00 +7°C° 0 mm 0 mps 766 mmHg 56%
    22:00 +7°C° 0 mm 0 mps 766 mmHg 57%
    23:00 +6°C° 0 mm 0 mps 766 mmHg 57%

    26 February, Tuesday

    Time Temperature Precipitation Wind Pressure Humidity
    00:00 +6°C° 0 mm 0 mps 766 mmHg 58%
    01:00 +7°C° 0 mm 1 mps 766 mmHg 58%
    02:00 +6°C° 0 mm 1 mps 766 mmHg 59%
    03:00 +5°C° 0 mm 0 mps 765 mmHg 60%
    04:00 +5°C° 0 mm 0 mps 765 mmHg 62%
    05:00 +4°C° 0 mm 0 mps 765 mmHg 62%
    06:00 +5°C° 0 mm 1 mps 765 mmHg 62%
    07:00 +5°C° 0 mm 1 mps 765 mmHg 62%
    08:00 +6°C° 0 mm 1 mps 765 mmHg 59%
    09:00 +7°C° 0 mm 0 mps 765 mmHg 55%
    10:00 +8°C° 0 mm 0 mps 765 mmHg 52%
    11:00 +11°C° 0 mm 1 mps 765 mmHg 48%
    12:00 +12°C° 0 mm 1 mps 765 mmHg 43%
    13:00 +14°C° 0 mm 1 mps 765 mmHg 39%
    14:00 +14°C° 0 mm 1 mps 764 mmHg 40%
    15:00 +14°C° 0 mm 1 mps 764 mmHg 42%
    16:00 +15°C° 0 mm 1 mps 764 mmHg 43%
    17:00 +13°C° 0 mm 1 mps 764 mmHg 48%
    18:00 +11°C° 0 mm 1 mps 764 mmHg 52%
    19:00 +8°C° 0 mm 0 mps 763 mmHg 57%
    20:00 +8°C° 0 mm 0 mps 763 mmHg 58%
    21:00 +7°C° 0 mm 0 mps 763 mmHg 59%
    22:00 +7°C° 0 mm 0 mps 763 mmHg 60%
    23:00 +7°C° 0 mm 0 mps 763 mmHg 61%

    27 February, Wednesday

    Time Temperature Precipitation Wind Pressure Humidity
    00:00 +6°C° 0 mm 0 mps 763 mmHg 62%
    01:00 +7°C° 0 mm 1 mps 763 mmHg 62%
    02:00 +7°C° 0 mm 1 mps 762 mmHg 62%
    03:00 +7°C° 0 mm 1 mps 762 mmHg 62%
    04:00 +6°C° 0 mm 1 mps 761 mmHg 62%
    05:00 +6°C° 0 mm 1 mps 761 mmHg 62%
    06:00 +6°C° 0 mm 1 mps 761 mmHg 61%
    07:00 +6°C° 0 mm 1 mps 761 mmHg 61%
    08:00 +7°C° 0 mm 1 mps 760 mmHg 57%
    09:00 +9°C° 0 mm 1 mps 760 mmHg 54%
    10:00 +10°C° 0 mm 1 mps 760 mmHg 50%
    11:00 +12°C° 0 mm 2 mps 760 mmHg 46%
    12:00 +14°C° 0 mm 2 mps 759 mmHg 43%
    13:00 +15°C° 0 mm 2 mps 759 mmHg 39%
    14:00 +15°C° 0 mm 2 mps 758 mmHg 41%
    15:00 +16°C° 0 mm 2 mps 758 mmHg 43%
    16:00 +16°C° 0 mm 2 mps 757 mmHg 45%
    17:00 +14°C° 0 mm 2 mps 757 mmHg 50%
    18:00 +12°C° 0 mm 2 mps 756 mmHg 55%
    19:00 +10°C° 0 mm 2 mps 756 mmHg 60%
    20:00 +9°C° 0 mm 3 mps 756 mmHg 61%
    21:00 +9°C° 0 mm 3 mps 755 mmHg 62%
    22:00 +8°C° 0 mm 3 mps 755 mmHg 63%
    23:00 +7°C° 0 mm 4 mps 755 mmHg 67%

    28 February, Thursday

    Time Temperature Precipitation Wind Pressure Humidity
    00:00 +7°C° 0 mm 4 mps 754 mmHg 70%
    01:00 +6°C° 0 mm 5 mps 754 mmHg 74%
    02:00 +6°C° 0 mm 5 mps 753 mmHg 80%
    03:00 +6°C° 0 mm 5 mps 753 mmHg 86%
    04:00 +6°C° 0 mm 5 mps 753 mmHg 92%
    05:00 +5°C° 0 mm 6 mps 752 mmHg 92%
    06:00 +7°C° 0 mm 6 mps 752 mmHg 91%
    07:00 +6°C° 0 mm 7 mps 752 mmHg 91%
    08:00 +6°C° 0.1 mm 7 mps 752 mmHg 89%
    09:00 +6°C° 0.1 mm 7 mps 752 mmHg 87%
    10:00 +8°C° 0.1 mm 7 mps 753 mmHg 85%
    11:00 +8°C° 0 mm 7 mps 753 mmHg 83%
    12:00 +7°C° 0 mm 8 mps 753 mmHg 82%
    13:00 +7°C° 0 mm 8 mps 753 mmHg 80%
    14:00 +8°C° 0 mm 7 mps 754 mmHg 79%
    15:00 +9°C° 0 mm 7 mps 754 mmHg 77%
    16:00 +9°C° 0 mm 7 mps 754 mmHg 75%
    17:00 +9°C° 0 mm 6 mps 754 mmHg 77%
    18:00 +8°C° 0 mm 6 mps 754 mmHg 79%
    19:00 +8°C° 0 mm 6 mps 755 mmHg 81%
    20:00 +8°C° 0.1 mm 6 mps 755 mmHg 82%
    21:00 +7°C° 0.1 mm 6 mps 755 mmHg 83%
    22:00 +7°C° 0.1 mm 6 mps 755 mmHg 84%
    23:00 +7°C° 0.1 mm 6 mps 755 mmHg 85%
    Show more